Change the Weather History Date:

Friday, November 29, 2013

  Actual Average Record
Temperature  
Mean Temperature 44 °F -  
Max Temperature 62 °F 62 °F 77 °F (2006)
Min Temperature 26 °F 37 °F 19 °F (2005)
Degree Days  
Heating Degree Days 21    
Moisture  
Dew Point 35 °F    
Average Humidity 73    
Maximum Humidity 96    
Minimum Humidity 39    
Precipitation  
Precipitation 0.00 in - - ()
Sea Level Pressure  
Sea Level Pressure 30.34 in    
Wind  
Wind Speed 2 mph (South)    
Max Wind Speed 12 mph    
Max Gust Speed -    
Visibility 10 miles    
Events      
Averages and records for this station are not official NWS values.
T = Trace of Precipitation, MM = Missing Value Source: NWS Daily Summary

Daily Weather History Graph

Daily Weather History Graph

Search for Another Location

Airport or City:

Trip Planner

Search our weather history database for the weather conditions in past years. The results will help you decide how hot, cold, wet, or windy it might be!

Date:

Astronomy

Nov. 29, 2013 Rise Set
Actual Time 7:17 AM CST 5:37 PM CST
Civil Twilight 6:50 AM CST 6:03 PM CST
Nautical Twilight 6:21 AM CST 6:33 PM CST
Astronomical Twilight 5:52 AM CST 7:02 PM CST
Moon 3:37 AM CST (11/29) 3:12 PM CST (11/29)
Length of Visible Light 11h 13m
Length of Day
10h 20m
Waning Crescent, 14% of the Moon is Illuminated
Nov 29
Waning Crescent
Dec 2
New
Dec 9
First Quarter
Dec 17
Full
Dec 25
Last Quarter

Hourly Weather History & Observations

Time (CST) Temp. Windchill Dew Point Humidity Pressure Visibility Wind Dir Wind Speed Gust Speed Precip Events Conditions
12:51 AM 28.9 °F 25.2 °F 26.1 °F 89% 30.36 in 10.0 mi NW 3.5 mph - N/A   Clear
1:51 AM 28.9 °F - 27.0 °F 92% 30.36 in 10.0 mi Calm Calm - N/A   Clear
2:51 AM 28.0 °F - 26.1 °F 92% 30.35 in 10.0 mi Calm Calm - N/A   Clear
3:51 AM 28.0 °F - 26.1 °F 92% 30.36 in 10.0 mi Calm Calm - N/A   Clear
4:51 AM 27.0 °F - 25.0 °F 92% 30.36 in 10.0 mi Calm Calm - N/A   Clear
5:51 AM 26.1 °F - 24.1 °F 92% 30.38 in 10.0 mi Calm Calm - N/A   Clear
6:51 AM 26.1 °F - 25.0 °F 96% 30.40 in 10.0 mi Calm Calm - N/A   Clear
7:51 AM 28.0 °F - 25.0 °F 88% 30.42 in 9.0 mi Calm Calm - N/A   Clear
8:51 AM 33.1 °F - 28.9 °F 85% 30.43 in 10.0 mi Calm Calm - N/A   Clear
9:51 AM 43.0 °F - 28.0 °F 56% 30.44 in 10.0 mi Calm Calm - N/A   Clear
10:51 AM 48.9 °F - 34.0 °F 56% 30.42 in 10.0 mi Calm Calm - N/A   Clear
11:51 AM 57.0 °F - 39.0 °F 51% 30.38 in 10.0 mi Calm Calm - N/A   Clear
12:51 PM 59.0 °F - 39.0 °F 48% 30.34 in 10.0 mi South 9.2 mph - N/A   Clear
1:51 PM 60.1 °F - 39.9 °F 47% 30.30 in 9.0 mi South 10.4 mph - N/A   Clear
2:51 PM 61.0 °F - 39.9 °F 46% 30.29 in 10.0 mi SSW 11.5 mph - N/A   Clear
3:51 PM 61.0 °F - 42.1 °F 50% 30.27 in 9.0 mi South 8.1 mph - N/A   Clear
4:51 PM 60.1 °F - 43.0 °F 53% 30.28 in 9.0 mi South 8.1 mph - N/A   Clear
5:51 PM 55.9 °F - 43.0 °F 62% 30.29 in 9.0 mi South 4.6 mph - N/A   Clear
6:51 PM 52.0 °F - 44.1 °F 74% 30.32 in 10.0 mi South 4.6 mph - N/A   Clear
7:51 PM 50.0 °F - 44.1 °F 80% 30.32 in 9.0 mi Calm Calm - N/A   Mostly Cloudy
8:51 PM 48.9 °F - 44.1 °F 83% 30.34 in 9.0 mi Calm Calm - N/A   Overcast
9:51 PM 48.9 °F - 43.0 °F 80% 30.31 in 9.0 mi SSE 3.5 mph - N/A   Partly Cloudy
10:51 PM 46.0 °F - 43.0 °F 89% 30.30 in 9.0 mi Calm Calm - N/A   Partly Cloudy
11:51 PM 44.1 °F - 42.1 °F 93% 30.29 in 8.0 mi Calm Calm - N/A   Clear